Orbital Elements at Epoch 2459200.5 (2020-Dec-17.0) TDB
Reference: JPL 28 (heliocentric ecliptic J2000)
Element | Value | Uncertainty (1-sigma) | Units |
e | .144620631859303 | 3.5694e-08 | |
a | 3.111704812950328 | 1.5688e-08 | au |
q | 2.661688096741817 | 1.1377e-07 | au |
i | 4.934114850733553 | 4.0625e-06 | deg |
node | 4.539566610210986 | 4.4002e-05 | deg |
peri | 101.9335606314882 | 4.6696e-05 | deg |
M | 355.3772733235027 | 1.405e-05 | deg |
tp | 2459226.244930845438 (2021-Jan-11.74493085) | 7.8269e-05 | TDB |
period | 2004.915227084152 5.49 | 1.5162e-05 4.151e-08 | d yr |
n | .1795587140726972 | 1.3579e-09 | deg/d |
Q | 3.561721529158838 | 1.7957e-08 | au |
|
| | Orbit Determination Parameters
Additional Information
|